Showing default

MIDAS 4, 192

Orbit data source: Space-Track

MIDAS 4, 192 is a payload satellite owned by USAF SSD (US) in LEO that was launched on Sat, 21 Oct 1961 UTC via an ATLAS AGENA B launch vehicle from the Air Force Western Test Range (AFWTR). Payloads include a variety of satellites, spacecraft, and rockets equipped with specific instruments for various scientific and technological missions. These include communications satellites like Starlink; space stations such as the ISS; scientific satellites like the Hubble; Earth observation satellites from companies like Planet Labs, Umbra, and HawkEye 360; GPS; miniature CubeSats for education and research; and military/defense satellites.

Loading next visibility...
MIDAS 4 details
Identifier
192, 1961-028A
Orbit
LEO
Last TLE update18 hours ago
Origin
Flag of USUSAF SSD (US)
ManufacturerLMSC
MissionDefense Early Warn
Bus & MotorMIDAS, Unknown motor
Mass~1,540 kg wet, 840 kg dry
Launch date (UTC)
1961-10-21 (63 years ago)
Launch vehicle
ATLAS AGENA B
Launch site
Air Force Western Test Range (AFWTR)
Object type
Payload
Rocket body
Debris
Shape & HBRCyl, 8.99 m
Radar Cross Section11.475 m², Large (>1 m²)

Expand to show TLE details & history

TLE from 18 hours ago
0 MIDAS 4
1 00192U 61028A   24355.73715721  .00000018  00000-0  94011-2 0  9997
2 00192  95.8633 109.4340 0137621 139.9778 221.1310  8.67771402  1017
Epoch: 2024-12-20T17:41Z
Definitive object data (Epoch: 2024-12-20T17:41:30.382Z)
Latitude-0.00001°
Longitude114.25903°
Altitude3,731.556 km
Speed6.247 km/s
True Right ascension07h 17m 44s
True Declination0° 00' 00"
Sunlit
Object was in full shadow at TLE epoch
Visualization TLE readout
Latitude13.41755°
Longitude-64.18603°
Altitude3,503.54 km
Speed6.391 km/s
Apparent Right ascension20h 26m 45s
Apparent Declination-7° 35' 42"
Sunlit
Object is in daylight
Visualization observer readout
Local Sidereal Time10:35:03
Azimuth50.262° ENE
Elevation-46.804°
Doppler factor1
Orbital elements
Apogee altitude3,760.401 km
Perigee altitude3,485.134 km
Semi-major axis10,000.904 km
Eccentricity0.0137621
Inclination95.8633°
RAAN109.434°
Arg. of periapsis139.9778°
True anomaly220.10699°
Mean anomaly221.131°
Eccentric anomaly220.61767°
Mean motion2.17012 °/min
BSTAR0.0094011
Orbital period165.89 mins
Loading maneuver chart data...
Loading historical data...
Loading historical data...
Loading historical data...
Loading historical data...
Loading historical data...
Loading historical data...
Loading historical data...

MIDAS 4 Visibility forecast

Observer location: undefined°, undefined

Span
Click to sort rows by Start time (UTC) header in descending order
Start Az.
Max El. time (UTC)
Max El. Az.
Max El.
End time (UTC)
End Az.
35 mins2024-12-21 19:22:23.774Z12.925° NNE2024-12-21 19:40:23.774Z97.605° ESE41.243°2024-12-21 19:57:23.774Z172.887° S
29 mins2024-12-21 22:08:23.774Z359.001° N2024-12-21 22:22:23.774Z298.133° NW33.401°2024-12-21 22:37:23.774Z238.145° WSW
30 mins2024-12-22 05:47:23.774Z117.037° SE2024-12-22 06:01:23.774Z61.504° ENE32.84°2024-12-22 06:17:23.774Z358.103° N
35 mins2024-12-22 08:26:23.774Z185.376° SSW2024-12-22 08:43:23.774Z263.893° W42.16°2024-12-22 09:01:23.774Z347.279° N
|